Terug naar catalogus

COSMOS 2251 DEB

ActiefLEO
NORAD 34814·DEBRIS·🇷🇺 Russia

Gelanceerd Jun 16, 1993 vanaf Plesetsk Cosmodrome

Loading…

Volgende Passages (komende 24 uur)

TLE

VersSource: Space-Track

Epoch: Sep 14, 2026, 05:25 UTC

1 34814U 93036ABD 26257.22595990  .00001366  00000-0  45383-3 0  9996
2 34814  73.8949 174.0852 0052953   2.5967 149.3777 14.37920426912910

Volg COSMOS 2251 DEB in realtime met AllMySat

Download on the App Store